Date String (YYYY-MM-DD hh:mm:ss) UTC,Instrument flags,Ambient pressure (hPa),Sample flow (lpm),Bypass flow (lpm),Sample temperature (°C),Ambient temperature (°C),ASC tube jacket temperature (°C),LED temperature (°C),Box temperature (°C),Sample RH (%),Span deviation,Mass concentration (μg/m³),Mass concentration (μg/m³),Mass concentration (μg/m³)
DateTimeUTC,F1_M11,P_M11,Q1_M11,Q2_M11,T1_M11,T2_M11,T3_M11,T4_M11,T5_M11,U1_M11,ZSPAN_M11,X2_M11,X0_M11,X1_M11
2022-04-08 18:00:00,,0830.5,5.00,0.00,24.2,23.6,00.0,33.1,26.1,08.5,0000.0,0002.73,0009.48,0001.52
2022-04-08 18:01:00,,0830.6,4.99,0.00,24.2,23.6,00.0,33.1,26.1,08.4,0000.0,0002.72,0008.60,0001.53
2022-04-08 18:02:00,,0830.5,4.99,0.00,24.2,23.6,00.0,33.1,26.1,08.1,0000.0,0002.77,0008.61,0001.55
2022-04-08 18:03:00,,0830.5,5.00,0.00,24.3,23.6,00.0,33.1,26.1,08.2,0000.0,0002.82,0008.82,0001.56
2022-04-08 18:04:00,,0830.5,5.00,0.00,24.3,23.6,00.0,33.1,26.1,08.3,0000.0,0002.88,0009.09,0001.57
2022-04-08 18:05:00,,0830.4,5.01,0.00,24.3,23.7,00.0,33.1,26.1,08.4,0000.0,0002.93,0009.19,0001.58
2022-04-08 18:06:00,,0830.4,5.01,0.00,24.3,23.7,00.0,33.2,26.1,08.3,0000.0,0002.97,0008.60,0001.61
2022-04-08 18:07:00,,0830.4,4.99,0.00,24.3,23.7,00.0,33.2,26.1,08.3,0000.0,0002.99,0008.13,0001.63
2022-04-08 18:08:00,,0830.4,5.00,0.00,24.3,23.7,00.0,33.2,26.2,08.1,0000.0,0003.02,0007.74,0001.66
2022-04-08 18:09:00,,0830.3,4.98,0.00,24.3,23.7,00.0,33.2,26.2,08.0,0000.0,0002.98,0008.51,0001.67
2022-04-08 18:10:00,,0830.4,5.00,0.00,24.4,23.7,00.0,33.2,26.2,08.3,0000.0,0003.00,0008.12,0001.69
2022-04-08 18:11:00,,0830.4,5.00,0.00,24.4,23.7,00.0,33.2,26.2,08.2,0000.0,0003.02,0008.12,0001.69
2022-04-08 18:12:00,,0830.4,5.00,0.00,24.4,23.8,00.0,33.2,26.3,08.2,0000.0,0003.01,0008.15,0001.70
2022-04-08 18:13:00,,0830.4,5.01,0.00,24.4,23.8,00.0,33.2,26.3,08.1,0000.0,0003.01,0008.45,0001.70
2022-04-08 18:14:00,,0830.4,4.98,0.00,24.4,23.8,00.0,33.3,26.3,08.1,0000.0,0003.01,0009.28,0001.70
2022-04-08 18:15:00,,0830.2,5.00,0.00,24.4,23.8,00.0,33.3,26.3,08.2,0000.0,0003.05,0009.33,0001.71
2022-04-08 18:16:00,,0830.2,5.00,0.00,24.4,23.8,00.0,33.3,26.4,08.3,0000.0,0003.08,0009.48,0001.71
2022-04-08 18:17:00,,0830.2,5.01,0.00,24.5,23.8,00.0,33.3,26.3,08.1,0000.0,0003.11,0010.11,0001.70
2022-04-08 18:18:00,,0830.2,5.00,0.00,24.5,23.9,00.0,33.3,26.4,08.2,0000.0,0003.13,0010.33,0001.69
2022-04-08 18:19:00,,0830.2,4.99,0.00,24.5,23.9,00.0,33.3,26.4,08.4,0000.0,0003.11,0010.23,0001.67
2022-04-08 18:20:00,,0830.2,5.00,0.00,24.5,23.9,00.0,33.3,26.3,08.2,0000.0,0003.13,0009.69,0001.66
2022-04-08 18:21:00,,0830.1,5.01,0.00,24.5,23.9,00.0,33.3,26.3,08.0,0000.0,0003.17,0009.83,0001.64
2022-04-08 18:22:00,,0830.1,4.99,0.00,24.5,23.9,00.0,33.3,26.3,08.0,0000.0,0003.22,0011.07,0001.65
2022-04-08 18:23:00,,0830.1,5.02,0.00,24.5,23.9,00.0,33.4,26.3,08.4,0000.0,0003.26,0011.34,0001.65
2022-04-08 18:24:00,,0830.1,4.98,0.00,24.5,23.9,00.0,33.4,26.3,08.4,0000.0,0003.25,0011.10,0001.63
2022-04-08 18:25:00,,0830.1,5.00,0.00,24.5,23.9,00.0,33.4,26.3,08.1,0000.0,0003.27,0010.35,0001.63
2022-04-08 18:26:00,,0830.1,5.02,0.00,24.5,23.9,00.0,33.4,26.3,08.0,0000.0,0003.23,0010.78,0001.61
2022-04-08 18:27:00,,0830.0,5.00,0.00,24.6,23.9,00.0,33.4,26.4,08.1,0000.0,0003.22,0010.59,0001.61
2022-04-08 18:28:00,,0830.0,5.00,0.00,24.6,23.9,00.0,33.4,26.5,08.1,0000.0,0003.21,0009.94,0001.62
2022-04-08 18:29:00,,0830.0,5.01,0.00,24.6,23.9,00.0,33.4,26.5,08.0,0000.0,0003.19,0009.57,0001.63
2022-04-08 18:30:00,,0830.0,4.99,0.00,24.6,23.9,00.0,33.4,26.5,08.4,0000.0,0003.21,0009.85,0001.64
2022-04-08 18:31:00,,0830.0,5.01,0.00,24.6,24.0,00.0,33.4,26.4,07.9,0000.0,0003.20,0009.71,0001.63
2022-04-08 18:32:00,,0830.0,5.00,0.00,24.6,23.9,00.0,33.4,26.4,08.3,0000.0,0003.16,0009.72,0001.64
2022-04-08 18:33:00,,0830.0,5.01,0.00,24.6,23.9,00.0,33.5,26.4,08.0,0000.0,0003.11,0008.95,0001.63
2022-04-08 18:34:00,,0830.0,5.00,0.00,24.6,23.9,00.0,33.5,26.4,08.0,0000.0,0003.02,0008.94,0001.62
2022-04-08 18:35:00,,0830.0,4.98,0.00,24.6,23.9,00.0,33.5,26.5,07.8,0000.0,0003.05,0009.99,0001.63
2022-04-08 18:36:00,,0829.9,5.00,0.00,24.6,24.0,00.0,33.5,26.5,08.0,0000.0,0003.05,0010.24,0001.63
2022-04-08 18:37:00,,0829.9,5.00,0.00,24.7,24.0,00.0,33.5,26.5,08.7,0000.0,0003.02,0009.57,0001.64
2022-04-08 18:38:00,,0829.9,5.00,0.00,24.7,24.0,00.0,33.5,26.6,08.1,0000.0,0003.04,0009.75,0001.64
2022-04-08 18:39:00,,0829.8,5.00,0.00,24.7,24.0,00.0,33.5,26.6,08.1,0000.0,0003.10,0009.89,0001.65
2022-04-08 18:40:00,,0829.8,5.00,0.00,24.7,24.0,00.0,33.5,26.5,08.1,0000.0,0003.10,0010.79,0001.64
2022-04-08 18:41:00,,0829.8,5.00,0.00,24.7,24.0,00.0,33.5,26.6,08.0,0000.0,0003.05,0010.73,0001.64
2022-04-08 18:42:00,,0829.8,5.00,0.00,24.7,24.1,00.0,33.5,26.5,08.2,0000.0,0003.07,0010.84,0001.66
2022-04-08 18:43:00,,0829.8,4.99,0.00,24.7,24.1,00.0,33.5,26.6,08.3,0000.0,0003.10,0010.53,0001.66
2022-04-08 18:44:00,,0829.8,4.99,0.00,24.7,24.1,00.0,33.6,26.6,08.0,0000.0,0003.15,0010.31,0001.68
2022-04-08 18:45:00,,0829.8,5.00,0.00,24.7,24.1,00.0,33.6,26.6,07.7,0000.0,0003.18,0009.89,0001.70
2022-04-08 18:46:00,,0829.8,5.01,0.00,24.7,24.1,00.0,33.6,26.6,07.7,0000.0,0003.15,0008.72,0001.71
2022-04-08 18:47:00,,0829.8,5.00,0.00,24.8,24.2,00.0,33.6,26.6,07.6,0000.0,0003.13,0009.04,0001.71
2022-04-08 18:48:00,,0829.7,5.01,0.00,24.8,24.2,00.0,33.6,26.7,07.7,0000.0,0003.13,0009.19,0001.73
2022-04-08 18:49:00,,0829.7,5.00,0.00,24.8,24.2,00.0,33.6,26.7,07.6,0000.0,0003.11,0008.97,0001.73
2022-04-08 18:50:00,,0829.7,5.01,0.00,24.8,24.2,00.0,33.6,26.7,07.6,0000.0,0003.10,0008.97,0001.72
2022-04-08 18:51:00,,0829.6,5.01,0.00,24.8,24.2,00.0,33.6,26.7,07.6,0000.0,0003.08,0009.02,0001.73
2022-04-08 18:52:00,,0829.6,5.00,0.00,24.8,24.2,00.0,33.7,26.7,08.0,0000.0,0003.11,0009.26,0001.74
2022-04-08 18:53:00,,0829.6,5.00,0.00,24.9,24.2,00.0,33.7,26.7,08.0,0000.0,0003.07,0009.64,0001.74
2022-04-08 18:54:00,,0829.6,5.00,0.00,24.9,24.2,00.0,33.7,26.7,07.6,0000.0,0003.11,0010.15,0001.76
2022-04-08 18:55:00,,0829.6,5.01,0.00,24.9,24.3,00.0,33.7,26.7,07.9,0000.0,0003.06,0010.11,0001.75
2022-04-08 18:56:00,,0829.6,5.00,0.00,24.9,24.3,00.0,33.7,26.7,08.1,0000.0,0003.02,0010.01,0001.74
2022-04-08 18:57:00,,0829.5,5.00,0.00,24.9,24.3,00.0,33.7,26.7,07.5,0000.0,0003.01,0010.22,0001.73
2022-04-08 18:58:00,,0829.6,4.99,0.00,24.9,24.3,00.0,33.7,26.8,07.6,0000.0,0003.06,0009.75,0001.72
2022-04-08 18:59:00,,0829.6,4.99,0.00,24.9,24.3,00.0,33.8,26.8,07.8,0000.0,0003.09,0010.24,0001.72
